Location: Newark
(13.4667°N, 16.6000°W)
Time: 09:02:01
(UTC+00:00)

LightSail 2 - Visible Passes

Search period start: 18 September 2019 00:00
Search period end: 28 September 2019 00:00
Orbit: 699 x 732 km, 24.0° (Epoch: 17 September)

Date Brightness Start Highest point End Pass type
(mag) Time Alt. Az. Time Alt. Az. Time Alt. Az.
18 Sep 8.1 04:04:25 11° E 04:04:25 11° E 04:04:33 10° E visible
18 Sep 5.1 05:43:28 35° W 05:45:36 78° NNW 05:50:41 10° ENE visible
19 Sep 6.1 04:49:58 44° E 04:49:58 44° E 04:53:28 10° ENE visible
19 Sep 6.0 06:29:22 10° W 06:34:06 39° NNW 06:38:51 10° NE visible
20 Sep 5.5 05:35:27 38° WNW 05:36:48 48° NNW 05:41:43 10° ENE visible
21 Sep 6.7 04:41:53 31° NE 04:41:53 31° NE 04:44:34 10° ENE visible
21 Sep 6.4 06:21:04 10° WNW 06:25:27 29° N 06:29:52 10° NE visible
22 Sep 6.0 05:27:18 32° NNW 05:28:06 34° NNW 05:32:42 10° NE visible
23 Sep 7.3 04:33:40 21° NE 04:33:40 21° NE 04:35:34 10° NE visible
23 Sep 6.6 06:12:43 10° WNW 06:16:52 25° N 06:21:01 10° NE visible
24 Sep 6.4 05:19:03 27° NNW 05:19:28 27° N 05:23:44 10° NE visible
25 Sep 7.6 04:25:23 16° NE 04:25:23 16° NE 04:26:32 10° NE visible
25 Sep 6.7 06:04:24 11° NW 06:08:17 24° N 06:12:22 10° NE visible
26 Sep 6.7 05:10:45 24° N 05:10:51 24° N 05:14:57 10° NE visible
27 Sep 7.9 04:17:05 12° NE 04:17:05 12° NE 04:17:37 10° NE visible
27 Sep 6.7 05:56:06 13° NW 05:59:41 26° N 06:03:56 10° ENE visible
